DW7831 Weather Reports


time (UTC)temp
C
wind
direction
speed
KPH
gust
KPH
rain 1hr
cm
rain 24hr
cm
rain mn
cm
humidity
%
barometer
mb
20260504214518 19 178 6.4 0.0 0.00 0.00 0.00 38 1006.7
20260504213021 19 222 8.0 0.0 0.00 0.00 0.00 38 1006.9
20260504211519 18 228 9.7 0.0 0.00 0.00 0.00 38 1007.0
20260504210016 18 228 11.3 0.0 0.00 0.00 0.00 38 1007.0
20260504204518 18 243 11.3 0.0 0.00 0.00 0.00 38 1007.1
20260504203017 19 186 9.7 0.0 0.00 0.00 0.00 38 1007.1
20260504201514 18 186 9.7 0.0 0.00 0.00 0.00 40 1007.2
20260504200017 18 200 6.4 0.0 0.00 0.00 0.00 39 1007.6
20260504194513 18 195 8.0 0.0 0.00 0.00 0.00 39 1007.8
20260504193013 17 240 8.0 0.0 0.00 0.00 0.00 40 1008.0
20260504191514 18 280 9.7 0.0 0.00 0.00 0.00 40 1008.3
20260504190008 17 248 6.4 0.0 0.00 0.00 0.00 41 1008.3
20260504184506 17 292 11.3 0.0 0.00 0.00 0.00 42 1008.5
20260504183005 17 219 12.9 0.0 0.00 0.00 0.00 41 1008.6
20260504181505 17 229 14.5 0.0 0.00 0.00 0.00 41 1008.5
20260504180003 17 237 11.3 0.0 0.00 0.00 0.00 41 1008.4
20260504174507 16 244 12.9 0.0 0.00 0.00 0.00 43 1008.6
20260504173008 16 220 9.7 0.0 0.00 0.00 0.00 43 1008.7
20260504171505 16 225 14.5 0.0 0.00 0.00 0.00 42 1008.8
20260504081544 6 203 6.4 0.0 0.00 0.00 0.00 59 1011.7
20260504050019 6 220 1.6 0.0 0.00 0.00 0.00 58 1011.7
20260504044520 6 220 1.6 0.0 0.00 0.00 0.00 58 1012.0
20260504043031 6 220 1.6 0.0 0.00 0.00 0.00 59 1012.1
20260504041511 6 214 0.0 0.0 0.00 0.00 0.00 59 1012.4
20260504040012 6 214 0.0 0.0 0.00 0.00 0.00 59 1012.4
20260504034507 5 217 1.6 0.0 0.00 0.00 0.00 59 1012.3
20260504033004 5 238 1.6 0.0 0.00 0.00 0.00 60 1012.4
20260504031602 3 240 1.6 0.0 0.00 0.00 0.00 60 1012.4
20260504030054 3 244 0.0 0.0 0.00 0.00 0.00 60 1012.3
20260504024553 2 244 0.0 0.0 0.00 0.00 0.00 61 1012.4
20260504023047 3 244 0.0 0.0 0.00 0.00 0.00 63 1012.5
20260504021543 3 244 0.0 0.0 0.00 0.00 0.00 64 1012.4
20260504020104 3 244 0.0 0.0 0.00 0.00 0.00 64 1012.3
20260504014548 4 244 0.0 0.0 0.00 0.00 0.00 64 1012.4
20260504013037 5 244 0.0 0.0 0.00 0.00 0.00 63 1012.5
20260504011526 5 244 0.0 0.0 0.00 0.00 0.00 62 1012.2
20260504010022 5 244 0.0 0.0 0.00 0.00 0.00 61 1012.0
20260504004522 6 244 0.0 0.0 0.00 0.00 0.00 59 1011.9
20260504003016 6 244 0.0 0.0 0.00 0.00 0.00 58 1011.8
20260504001512 7 244 0.0 0.0 0.00 0.00 0.00 57 1011.7
20260504000008 7 242 3.2 0.0 0.00 0.00 0.00 56 1011.8
20260503234504 7 267 3.2 0.0 0.00 0.00 0.00 55 1011.6
20260503233107 7 240 9.7 0.0 0.00 0.00 0.00 55 1011.6
20260503231558 8 252 12.9 0.0 0.00 0.00 0.00 53 1011.6
20260503230109 8 215 11.3 0.0 0.00 0.00 0.00 50 1011.5
20260503224556 8 266 3.2 0.0 0.00 0.00 0.00 49 1011.1
20260503223045 8 9 4.8 0.0 0.00 0.00 0.00 48 1011.2
20260503221539 8 232 8.0 0.0 0.00 0.00 0.00 45 1011.2
20260503220043 8 300 4.8 0.0 0.00 0.00 0.00 43 1011.1